Location: Hastringsfeld
(50.9620°N, 10.4787°E)
Time: 19:34:23
(UTC+00:00)

Cosmos 2112 Rocket - Pass Details

Date: 26 September 2023
Orbit: 755 x 785 km, 74.0° (Epoch: 08 December)

Event Time Altitude Azimuth Distance (km) Brightness Sun altitude
Rises 02:01:48 0° 336° (NNW) 3,284 7.5 -28.4°
Reaches altitude 10° 02:04:13 10° 340° (NNW) 2,354 6.7 -28.1°
Maximum altitude 02:09:33 67° 63° (ENE) 856 4.3 -27.4°
Drops below altitude 10° 02:14:52 10° 146° (SE) 2,341 6.5 -26.7°
Sets 02:17:16 0° 149° (SSE) 3,264 7.2 -26.4°
